www.pogodaiklimat.ru

Погода и климат >> Архив погоды >> Россия >> Чукотка >> Островное


АРХИВ ПОГОДЫ в Островном

Время (UTC), дата Ветер
(напр.,м/с)
 
Видим.   Явления Облачность Т
(С)
Тd
(С)
f
(%)
Тe
(С)
Тes
(С)
Комфортность P
(гПа)
Po
(гПа)
Тmin
(С)
Tmax
(С)
R
(мм)
R24
(мм)
S
(см)
15 15.08 Ю 2
{3}
50 км ясно -1.9 -2.3 97 -6 -6 1028.4 1016.2
18 15.08 В 2
{3}
50 км ясно -1.4 -1.6 99 -6 -5 1029.3 1017.2
21 15.08 В 3
{5}
50 км 4/0
[Ci fib]
+6.1 +0.2 66 +3 +6 1030.4 1018.5 -2.6
00 16.08 В 2
{6}
50 км 3/0
[Ci fib]
+11.2 +0.2 47 +10 +17 1029.9 1018.3
03 16.08 ЮВ 2
{4}
50 км 4/0
[Ci fib]
+15.3 +0.6 37 +15 +21 1029.0 1017.5
06 16.08 Ю 2
{4}
50 км 3/0
[Ci fib]
+16.4 +0.4 34 +17 +19 1028.0 1016.7
09 16.08 ЮВ 2
{4}
50 км 3/0
[Ci fib]
+11.1 +3.4 59 +10 +10 1028.5 1016.9 +17.0
12 16.08 В 3
{4}
50 км ясно +8.4 +2.7 67 +6 +6 1030.0 1018.3
15 16.08 В 2
{4}
50 км ясно +0.9 +0.6 98 -3 -3 1031.0 1019.0
18 16.08 В 2
{4}
50 км ясно +1.4 +0.6 94 -2 -2 1032.3 1020.3
21 16.08 В 4
{7}
50 км 4/0
[Ci fib]
+10.0 +2.3 59 +8 +10 1032.4 1020.7 -0.3
00 17.08 ЮВ 4
{7}
50 км 3/0
[Ci fib]
+15.1 +0.4 37 +14 +19 1031.2 1019.7
03 17.08 В 3
{8}
50 км ясно +18.5 +0.4 30 +19 +24 1029.9 1018.6
06 17.08 ЮВ 3
{7}
50 км ясно +18.7 +0.6 30 +19 +21 1029.3 1018.0
09 17.08 ЮВ 3
{6}
50 км 3/0
[Ci fib]
+15.6 +0.2 35 +15 +15 1029.6 1018.1 +19.2
12 17.08 В 3
{8}
50 км 3/0
[Ci fib]
+11.9 +2.5 53 +11 +11 1030.6 1019.0
15 17.08 ЮВ 3
{8}
50 км 3/0
[Ci fib]
+10.6 +2.5 57 +9 +9 1031.0 1019.4
18 17.08 ЮВ 2
{7}
50 км 6/0
[Ac lent Ci fib]
+9.7 +3.4 65 +8 +9 1030.9 1019.2
21 17.08 В 4
{9}
50 км 8/0
[Ac lent Ci sp]
+13.7 +5.6 58 +12 +14 1030.1 1018.6 +6.8
00 18.08 ЮВ 5
{10}
50 км 8/1 600 м
[Sc Ac trans Ci fib]
+17.0 +5.1 45 +16 +18 1028.5 1017.2
03 18.08 ЮВ 4
{9}
50 км 6/0
[Ac trans Ci fib]
+19.1 +5.1 40 +19 +22 1026.8 1015.6
06 18.08 В 4
{8}
50 км 9/3 600 м
[Sc Ac trans Ci fib]
+18.1 +7.0 48 +18 +19 1026.3 1015.1
09 18.08 В 3
{8}
50 км 9/6 600 м
[Sc Ac trans Ci fib]
+15.8 +7.4 57 +15 +15 1026.0 1014.6 +19.7
12 18.08 В 3
{9}
50 км 9/6 600 м
[Sc Ac trans Ci fib]
+13.4 +7.6 68 +12 +12 1025.8 1014.3
15 18.08 В 4
{11}
50 км 8/6 600 м
[Sc Ac trans Ci fib]
+12.1 +8.5 79 +10 +10 1026.1 1014.6
18 18.08 В 4
{12}
20 км слаб. ливневой дождь 10/8 600 м
[Cb cap Ac und]
+10.5 +9.7 95 +8 +8 1026.0 1014.4
21 18.08 В 3
{7}
50 км {ливн. осадки} 10/8 600 м
[Cb cap Ac und]
+11.4 +10.6 95 +9 +10 1026.2 1014.6 +10.3 0.4
00 19.08 В 3
{6}
50 км {ливн. осадки} 9/8 600 м
[Cu med, cong Ac trans]
+15.5 +11.2 76 +15 +16 1025.8 1014.4
03 19.08 ЮВ 2
{5}
50 км 8/3 600 м
[Cu Sc Ac trans]
+19.1 +10.6 58 +21 +23 комфорт 1024.7 1013.5
06 19.08 ЮВ 1
{4}
50 км 10/5 600 м
[Cu Sc Ac trans Ci fib]
+19.5 +11.1 58 +22 +22 комфорт 1024.3 1013.1
09 19.08 В 2
{5}
50 км 8/1 600 м
[Sc Ci fib]
+16.8 +11.1 69 +17 +17 1024.3 1013.0 +20.5
12 19.08 В 2
{6}
50 км 6/4 600 м
[Sc Ci fib]
+11.4 +10.0 91 +10 +10 1025.2 1013.6
15 19.08 З 1
{3}
50 км 6/0
[Ci fib]
+7.4 +7.4 100 +6 +6 1025.3 1013.6
18 19.08 З 2
{2}
50 км 10/0
[Ci fib]
+6.5 +6.5 100 +4 +4 1025.5 1013.8
21 19.08 ЮВ 3
{6}
50 км ясно +12.9 +9.5 80 +12 +14 1024.8 1013.3 +5.5
00 20.08 В 3
{7}
50 км 4/0
[Ci fib]
+20.3 +10.7 54 +22 +27 комфорт 1023.0 1011.9
03 20.08 В 3
{6}
50 км 6/0
[Ac trans Ci fib]
+23.1 +10.6 45 +25 +29 комфорт 1021.2 1010.2
06 20.08 ЮВ 3
{5}
50 км 6/1 600 м
[Sc Ac trans Ci fib]
+23.6 +10.2 43 +25 +26 комфорт 1019.8 1008.8
09 20.08 В 1
{5}
50 км 5/1 600 м
[Sc Ac trans Ci fib]
+19.9 +11.4 58 +23 +23 комфорт 1019.7 1008.6 +24.3
12 20.08 ЮВ 1
{2}
50 км 6/3 600 м
[Sc Ac trans Ci fib]
+11.0 +10.0 94 +11 +11 1020.0 1008.5
15 20.08 штиль 0
{2}
50 км 8/3 600 м
[Sc Ac trans Ci fib]
+6.0 +6.0 100 +5 +5 1019.9 1008.2
18 20.08 штиль 0
{1}
50 км 4/0
[Ci fib]
+4.9 +4.9 100 +4 +4 1020.1 1008.3
21 20.08 штиль 0
{1}
50 км 8/0
[Ac trans Ci fib]
+13.6 +9.5 76 +13 +16 1019.2 1007.8 +4.7
00 21.08 В 1
{4}
50 км 3/0
[Ci fib]
+21.1 +9.8 48 +22 +29 комфорт 1017.5 1006.4
03 21.08 З 2
{5}
50 км 6/3 600 м
[Cu med, cong Ci sp]
+25.2 +7.7 33 +25 +29 комфорт 1015.8 1004.9
06 21.08 З 4
{6}
50 км 6/4 600 м
[Cu med, cong Ci sp]
+24.7 +6.4 31 +25 +25 комфорт 1014.7 1003.8
09 21.08 С 3
{7}
50 км 4/0
[Ac lent Ci sp]
+19.4 +9.7 53 +21 +21 комфорт 1015.1 1004.0 +25.7
12 21.08 З 1
{5}
50 км 6/0
[Ac trans Ci sp]
+12.4 +8.0 75 +12 +12 1016.1 1004.7
15 21.08 З 2
{7}
50 км 3/0
[Ac lent Ci fib]
+9.6 +8.1 90 +8 +8 1016.8 1005.3
18 21.08 Ю 1
{3}
50 км 3/0
[Ci fib]
+5.8 +5.6 99 +4 +5 1018.0 1006.3
21 21.08 СЗ 2
{3}
50 км 8/0
[Ci fib]
+13.2 +7.6 69 +13 +15 1018.6 1007.2 +5.2
00 22.08 СЗ 3
{6}
50 км 9/0
[Ac trans Ci fib]
+18.1 +7.1 49 +18 +21 1018.3 1007.2
03 22.08 З 3
{6}
50 км 9/1 600 м
[Sc Ac trans Ci fib]
+19.6 +5.1 39 +20 +23 1018.2 1007.1
06 22.08 СЗ 3
{6}
50 км 4/0
[Ac trans Ci fib]
+19.5 +3.4 34 +20 +21 1018.0 1006.9
09 22.08 З 2
{5}
50 км 8/1 600 м
[Sc Ac trans Ci fib]
+14.2 +5.0 54 +14 +14 1018.8 1007.5 +20.5
12 22.08 ЮЗ 1
{4}
50 км 8/0
[Ac trans Ci fib]
+5.2 +3.8 91 +4 +4 1020.5 1008.7

 

Местоположение метеостанции Островное (Чукотка, Россия): широта 68.12 долгота 164.10 высота над уровнем моря 94 м.

В архиве по умолчанию представлена погода в Островном за последнюю неделю. Архивные данные за месяц целиком и за предыдущие месяцы, начиная с января 2011 года, Вы можете получить, выбрав интересующий диапазон дат из раскрывающегося списка и нажав кнопку "Ввод!".


*Определитесь, кто Вы:
робот инопланетянин человек

Внимание! Время в таблицах - всемирное. Для получения местного времени необходимо прибавить поправку, которая равна 12 ч.

Смотрите также архив погоды в соседних городах и на ближайших метеорологических станциях:

Погода в Билибино (Чукотка, Россия) (96 км)
Погода в Анюйске (Чукотка, Россия) (110 км)
Погода в Константиновской (Чукотка, Россия) (124 км)
Погода в Черском (Якутия, Россия) (133 км)
Погода в Баимке (Чукотка, Россия) (177 км)
Погода в Раучуе (Чукотка, Россия) (181 км)
Погода в Бухте Амбарчик (Чукотка, Россия) (182 км)
Погода в Илирнее (Чукотка, Россия) (187 км)
Погода в Колымской (Якутия, Россия) (235 км)
Погода на Айон Острове (Чукотка, Россия) (252 км)

Пояснения к столбцам:

Ветер - указаны скорость ветра в м/с - средняя за 10 мин, порывы в срок и между сроками (в фигурных скобках) и направление, откуда дует ветер: С - северный, СВ - северо-восточный, В - восточный, ЮВ - юго-восточный, Ю - южный, ЮЗ - юго-западный, З - западный, СЗ - северо-западный.
Видимость - горизонтальная дальность видимости в метрах или километрах. При видимости от 1 до 10 км при отсутствии осадков обычно наблюдается дымка, при ухудшении видимости до 1 км и менее - туман. В сухую погоду видимость может ухудшаться дымом, пылью или мглою.
Явления - указаны атмосферные явления, наблюдавшиеся в срок или в последний час перед сроком; фигурными скобками обозначены явления, наблюдавшиеся между сроками (за 1-3 часа до срока); квадратными скобками обозначены град или гололедные отложения с указанием их диаметра в мм.
Облачность - указаны через наклонную черту общая и нижняя облачность в баллах и высота нижней границы облаков в метрах; квадратными скобками обозначены формы облаков: Ci - перистые, Cs - перисто-слоистые, Cc - перисто-кучевые, Ac - высококучевые, As - высокослоистые, Sc - слоисто-кучевые, Ns - слоисто-дождевые, Cu - кучевые, Cb - кучево-дождевые. Подробнее классификацию облаков см. в Атласе облаков (PDF).
T - Температура воздуха - температура, измеренная на высоте 2 м над землей.
Td - Температура точки росы - температура, при понижении до которой содержащийся в воздухе водяной пар достигнет насыщения.
f - Относительная влажность воздуха - влажноcть воздуха, измеренная на высоте 2 м над землей.
Te - Эффективная температура - температура, которую ощущает одетый по сезону человек в тени. Характеристика душности погоды. При расчете учитывается влияние влажности воздуха и скорости ветра на теплоощущения человека.
Tes - Эффективная температура на солнце - температура, которую ощущает человек, с поправкой на солнечный нагрев. Характеристика знойности погоды. Зависит от высоты солнца над горизонтом, облачности и скорости ветра. Ночью, в пасмурную погоду, а также при ветре 12 м/с и более поправка равна нулю.
P - Атмосферное давление - приведенное к уровню моря атмосферное давление.
Po - Атмосферное давление - измеренное на уровне метеостанции атмосферное давление.
Tmin - Минимальная температура - минимум температуры воздуха на высоте 2 м над землей.
Tmax - Максимальная температура - максимум температуры воздуха на высоте 2 м над землей.
R - Количество осадков - Количество выпавших осадков за период времени, мм. При наведении курсора мыши на число - период времени, за который выпало указанное количество осадков.
R24 - Количество осадков - Количество выпавших осадков за 24 часа, мм.
S - Снежный покров - Высота снежного покрова, см. При наведении курсора мыши на число - состояние снежного покрова и степень покрытия местности в баллах.